<?xml version="1.0" encoding="ISO-8859-1" standalone="yes"?>
<gpx
  version="1.1"
  creator="GPS-Format-Konverter - http://www.astr-software.de.ki"
  xmlns:xsi="http://www.w3.org/2001/XMLSchema-instance"  xmlns:topografix="http://www.topografix.com/GPX/Private/TopoGrafix/0/1"
  xmlns="http://www.topografix.com/GPX/1/1"
  xsi:schemaLocation="http://www.topografix.com/GPX/1/1 http://www.topografix.com/GPX/1/1/gpx.xsd">
<metadata>
  <time>2010-11-02T07:46:13Z</time>
</metadata>
<trk>
  <name>Track_Goldsteig_N_11_Furth_im_Wald_-_Schoenbuchen-opt</name>
  <trkseg>
    <trkpt lat="49.3079717" lon="12.8442580">
       <ele>0</ele>
       <time>2010-11-02T07:46:13Z</time>
       <type>Trackpoint</type>
    </trkpt>
    <trkpt lat="49.3078700" lon="12.8443004">
       <ele>0</ele>
       <time>2010-11-02T07:46:13Z</time>
       <type>Trackpoint</type>
    </trkpt>
    <trkpt lat="49.3076560" lon="12.8444129">
       <ele>0</ele>
       <time>2010-11-02T07:46:13Z</time>
       <type>Trackpoint</type>
    </trkpt>
    <trkpt lat="49.3070725" lon="12.8449636">
       <ele>0</ele>
       <time>2010-11-02T07:46:13Z</time>
       <type>Trackpoint</type>
    </trkpt>
    <trkpt lat="49.3068525" lon="12.8452037">
       <ele>0</ele>
       <time>2010-11-02T07:46:13Z</time>
       <type>Trackpoint</type>
    </trkpt>
    <trkpt lat="49.3066792" lon="12.8453342">
       <ele>0</ele>
       <time>2010-11-02T07:46:13Z</time>
       <type>Trackpoint</type>
    </trkpt>
    <trkpt lat="49.3065522" lon="12.8452726">
       <ele>0</ele>
       <time>2010-11-02T07:46:13Z</time>
       <type>Trackpoint</type>
    </trkpt>
    <trkpt lat="49.3064994" lon="12.8453843">
       <ele>0</ele>
       <time>2010-11-02T07:46:13Z</time>
       <type>Trackpoint</type>
    </trkpt>
    <trkpt lat="49.3063072" lon="12.8456986">
       <ele>0</ele>
       <time>2010-11-02T07:46:13Z</time>
       <type>Trackpoint</type>
    </trkpt>
    <trkpt lat="49.3061080" lon="12.8454341">
       <ele>0</ele>
       <time>2010-11-02T07:46:13Z</time>
       <type>Trackpoint</type>
    </trkpt>
    <trkpt lat="49.3059302" lon="12.8449800">
       <ele>0</ele>
       <time>2010-11-02T07:46:13Z</time>
       <type>Trackpoint</type>
    </trkpt>
    <trkpt lat="49.3058377" lon="12.8447439">
       <ele>0</ele>
       <time>2010-11-02T07:46:13Z</time>
       <type>Trackpoint</type>
    </trkpt>
    <trkpt lat="49.3052160" lon="12.8449895">
       <ele>0</ele>
       <time>2010-11-02T07:46:13Z</time>
       <type>Trackpoint</type>
    </trkpt>
    <trkpt lat="49.3047676" lon="12.8451667">
       <ele>0</ele>
       <time>2010-11-02T07:46:13Z</time>
       <type>Trackpoint</type>
    </trkpt>
    <trkpt lat="49.3045412" lon="12.8454129">
       <ele>0</ele>
       <time>2010-11-02T07:46:13Z</time>
       <type>Trackpoint</type>
    </trkpt>
    <trkpt lat="49.3042976" lon="12.8458354">
       <ele>0</ele>
       <time>2010-11-02T07:46:13Z</time>
       <type>Trackpoint</type>
    </trkpt>
    <trkpt lat="49.3039057" lon="12.8465373">
       <ele>0</ele>
       <time>2010-11-02T07:46:13Z</time>
       <type>Trackpoint</type>
    </trkpt>
    <trkpt lat="49.3037034" lon="12.8465416">
       <ele>0</ele>
       <time>2010-11-02T07:46:13Z</time>
       <type>Trackpoint</type>
    </trkpt>
    <trkpt lat="49.3037318" lon="12.8466245">
       <ele>0</ele>
       <time>2010-11-02T07:46:13Z</time>
       <type>Trackpoint</type>
    </trkpt>
    <trkpt lat="49.3037668" lon="12.8469479">
       <ele>0</ele>
       <time>2010-11-02T07:46:13Z</time>
       <type>Trackpoint</type>
    </trkpt>
    <trkpt lat="49.3035887" lon="12.8472223">
       <ele>0</ele>
       <time>2010-11-02T07:46:13Z</time>
       <type>Trackpoint</type>
    </trkpt>
    <trkpt lat="49.3034810" lon="12.8474515">
       <ele>0</ele>
       <time>2010-11-02T07:46:13Z</time>
       <type>Trackpoint</type>
    </trkpt>
    <trkpt lat="49.3034509" lon="12.8475091">
       <ele>0</ele>
       <time>2010-11-02T07:46:13Z</time>
       <type>Trackpoint</type>
    </trkpt>
    <trkpt lat="49.3033332" lon="12.8474286">
       <ele>0</ele>
       <time>2010-11-02T07:46:13Z</time>
       <type>Trackpoint</type>
    </trkpt>
    <trkpt lat="49.3031006" lon="12.8475565">
       <ele>0</ele>
       <time>2010-11-02T07:46:13Z</time>
       <type>Trackpoint</type>
    </trkpt>
    <trkpt lat="49.3029900" lon="12.8475408">
       <ele>0</ele>
       <time>2010-11-02T07:46:13Z</time>
       <type>Trackpoint</type>
    </trkpt>
    <trkpt lat="49.3029425" lon="12.8476879">
       <ele>0</ele>
       <time>2010-11-02T07:46:13Z</time>
       <type>Trackpoint</type>
    </trkpt>
    <trkpt lat="49.3025138" lon="12.8479878">
       <ele>0</ele>
       <time>2010-11-02T07:46:13Z</time>
       <type>Trackpoint</type>
    </trkpt>
    <trkpt lat="49.3021298" lon="12.8482564">
       <ele>0</ele>
       <time>2010-11-02T07:46:13Z</time>
       <type>Trackpoint</type>
    </trkpt>
    <trkpt lat="49.3016297" lon="12.8486062">
       <ele>0</ele>
       <time>2010-11-02T07:46:13Z</time>
       <type>Trackpoint</type>
    </trkpt>
    <trkpt lat="49.3015216" lon="12.8481420">
       <ele>0</ele>
       <time>2010-11-02T07:46:13Z</time>
       <type>Trackpoint</type>
    </trkpt>
    <trkpt lat="49.3012369" lon="12.8475679">
       <ele>0</ele>
       <time>2010-11-02T07:46:13Z</time>
       <type>Trackpoint</type>
    </trkpt>
    <trkpt lat="49.3007206" lon="12.8474103">
       <ele>0</ele>
       <time>2010-11-02T07:46:13Z</time>
       <type>Trackpoint</type>
    </trkpt>
    <trkpt lat="49.3002645" lon="12.8473802">
       <ele>0</ele>
       <time>2010-11-02T07:46:13Z</time>
       <type>Trackpoint</type>
    </trkpt>
    <trkpt lat="49.2998580" lon="12.8472732">
       <ele>0</ele>
       <time>2010-11-02T07:46:13Z</time>
       <type>Trackpoint</type>
    </trkpt>
    <trkpt lat="49.2999600" lon="12.8458764">
       <ele>0</ele>
       <time>2010-11-02T07:46:13Z</time>
       <type>Trackpoint</type>
    </trkpt>
    <trkpt lat="49.3000896" lon="12.8453451">
       <ele>0</ele>
       <time>2010-11-02T07:46:13Z</time>
       <type>Trackpoint</type>
    </trkpt>
    <trkpt lat="49.2999657" lon="12.8447635">
       <ele>0</ele>
       <time>2010-11-02T07:46:13Z</time>
       <type>Trackpoint</type>
    </trkpt>
    <trkpt lat="49.3000753" lon="12.8442888">
       <ele>0</ele>
       <time>2010-11-02T07:46:13Z</time>
       <type>Trackpoint</type>
    </trkpt>
    <trkpt lat="49.3005500" lon="12.8440454">
       <ele>0</ele>
       <time>2010-11-02T07:46:13Z</time>
       <type>Trackpoint</type>
    </trkpt>
    <trkpt lat="49.3011342" lon="12.8428647">
       <ele>0</ele>
       <time>2010-11-02T07:46:13Z</time>
       <type>Trackpoint</type>
    </trkpt>
    <trkpt lat="49.3013893" lon="12.8415717">
       <ele>0</ele>
       <time>2010-11-02T07:46:13Z</time>
       <type>Trackpoint</type>
    </trkpt>
    <trkpt lat="49.3013468" lon="12.8406274">
       <ele>0</ele>
       <time>2010-11-02T07:46:13Z</time>
       <type>Trackpoint</type>
    </trkpt>
    <trkpt lat="49.3014412" lon="12.8398385">
       <ele>0</ele>
       <time>2010-11-02T07:46:13Z</time>
       <type>Trackpoint</type>
    </trkpt>
    <trkpt lat="49.3014967" lon="12.8386179">
       <ele>0</ele>
       <time>2010-11-02T07:46:13Z</time>
       <type>Trackpoint</type>
    </trkpt>
    <trkpt lat="49.3017241" lon="12.8382364">
       <ele>0</ele>
       <time>2010-11-02T07:46:13Z</time>
       <type>Trackpoint</type>
    </trkpt>
    <trkpt lat="49.3016544" lon="12.8381250">
       <ele>0</ele>
       <time>2010-11-02T07:46:13Z</time>
       <type>Trackpoint</type>
    </trkpt>
    <trkpt lat="49.3015482" lon="12.8376007">
       <ele>0</ele>
       <time>2010-11-02T07:46:13Z</time>
       <type>Trackpoint</type>
    </trkpt>
    <trkpt lat="49.3014499" lon="12.8373894">
       <ele>0</ele>
       <time>2010-11-02T07:46:13Z</time>
       <type>Trackpoint</type>
    </trkpt>
    <trkpt lat="49.3013912" lon="12.8373336">
       <ele>0</ele>
       <time>2010-11-02T07:46:13Z</time>
       <type>Trackpoint</type>
    </trkpt>
    <trkpt lat="49.3012648" lon="12.8372994">
       <ele>0</ele>
       <time>2010-11-02T07:46:13Z</time>
       <type>Trackpoint</type>
    </trkpt>
    <trkpt lat="49.3010049" lon="12.8371748">
       <ele>0</ele>
       <time>2010-11-02T07:46:13Z</time>
       <type>Trackpoint</type>
    </trkpt>
    <trkpt lat="49.3007068" lon="12.8369640">
       <ele>0</ele>
       <time>2010-11-02T07:46:13Z</time>
       <type>Trackpoint</type>
    </trkpt>
    <trkpt lat="49.3003972" lon="12.8368314">
       <ele>0</ele>
       <time>2010-11-02T07:46:13Z</time>
       <type>Trackpoint</type>
    </trkpt>
    <trkpt lat="49.2998294" lon="12.8367615">
       <ele>0</ele>
       <time>2010-11-02T07:46:13Z</time>
       <type>Trackpoint</type>
    </trkpt>
    <trkpt lat="49.2996696" lon="12.8367418">
       <ele>0</ele>
       <time>2010-11-02T07:46:13Z</time>
       <type>Trackpoint</type>
    </trkpt>
    <trkpt lat="49.2992022" lon="12.8366842">
       <ele>0</ele>
       <time>2010-11-02T07:46:13Z</time>
       <type>Trackpoint</type>
    </trkpt>
    <trkpt lat="49.2989760" lon="12.8366315">
       <ele>0</ele>
       <time>2010-11-02T07:46:13Z</time>
       <type>Trackpoint</type>
    </trkpt>
    <trkpt lat="49.2988333" lon="12.8365774">
       <ele>0</ele>
       <time>2010-11-02T07:46:13Z</time>
       <type>Trackpoint</type>
    </trkpt>
    <trkpt lat="49.2984773" lon="12.8362079">
       <ele>0</ele>
       <time>2010-11-02T07:46:13Z</time>
       <type>Trackpoint</type>
    </trkpt>
    <trkpt lat="49.2979783" lon="12.8358469">
       <ele>0</ele>
       <time>2010-11-02T07:46:13Z</time>
       <type>Trackpoint</type>
    </trkpt>
    <trkpt lat="49.2974820" lon="12.8356519">
       <ele>0</ele>
       <time>2010-11-02T07:46:13Z</time>
       <type>Trackpoint</type>
    </trkpt>
    <trkpt lat="49.2972752" lon="12.8357642">
       <ele>0</ele>
       <time>2010-11-02T07:46:13Z</time>
       <type>Trackpoint</type>
    </trkpt>
    <trkpt lat="49.2967205" lon="12.8355630">
       <ele>0</ele>
       <time>2010-11-02T07:46:13Z</time>
       <type>Trackpoint</type>
    </trkpt>
    <trkpt lat="49.2960178" lon="12.8354592">
       <ele>0</ele>
       <time>2010-11-02T07:46:13Z</time>
       <type>Trackpoint</type>
    </trkpt>
    <trkpt lat="49.2953649" lon="12.8353627">
       <ele>0</ele>
       <time>2010-11-02T07:46:13Z</time>
       <type>Trackpoint</type>
    </trkpt>
    <trkpt lat="49.2949062" lon="12.8354439">
       <ele>0</ele>
       <time>2010-11-02T07:46:13Z</time>
       <type>Trackpoint</type>
    </trkpt>
    <trkpt lat="49.2946183" lon="12.8354948">
       <ele>0</ele>
       <time>2010-11-02T07:46:13Z</time>
       <type>Trackpoint</type>
    </trkpt>
    <trkpt lat="49.2943971" lon="12.8355487">
       <ele>0</ele>
       <time>2010-11-02T07:46:13Z</time>
       <type>Trackpoint</type>
    </trkpt>
    <trkpt lat="49.2941650" lon="12.8356353">
       <ele>0</ele>
       <time>2010-11-02T07:46:13Z</time>
       <type>Trackpoint</type>
    </trkpt>
    <trkpt lat="49.2935457" lon="12.8361677">
       <ele>0</ele>
       <time>2010-11-02T07:46:13Z</time>
       <type>Trackpoint</type>
    </trkpt>
    <trkpt lat="49.2930941" lon="12.8369580">
       <ele>0</ele>
       <time>2010-11-02T07:46:13Z</time>
       <type>Trackpoint</type>
    </trkpt>
    <trkpt lat="49.2927554" lon="12.8372967">
       <ele>0</ele>
       <time>2010-11-02T07:46:13Z</time>
       <type>Trackpoint</type>
    </trkpt>
    <trkpt lat="49.2923602" lon="12.8382141">
       <ele>0</ele>
       <time>2010-11-02T07:46:13Z</time>
       <type>Trackpoint</type>
    </trkpt>
    <trkpt lat="49.2918632" lon="12.8387558">
       <ele>0</ele>
       <time>2010-11-02T07:46:13Z</time>
       <type>Trackpoint</type>
    </trkpt>
    <trkpt lat="49.2909426" lon="12.8392449">
       <ele>0</ele>
       <time>2010-11-02T07:46:13Z</time>
       <type>Trackpoint</type>
    </trkpt>
    <trkpt lat="49.2905122" lon="12.8397030">
       <ele>0</ele>
       <time>2010-11-02T07:46:13Z</time>
       <type>Trackpoint</type>
    </trkpt>
    <trkpt lat="49.2902114" lon="12.8400232">
       <ele>0</ele>
       <time>2010-11-02T07:46:13Z</time>
       <type>Trackpoint</type>
    </trkpt>
    <trkpt lat="49.2900508" lon="12.8401942">
       <ele>0</ele>
       <time>2010-11-02T07:46:13Z</time>
       <type>Trackpoint</type>
    </trkpt>
    <trkpt lat="49.2897818" lon="12.8407542">
       <ele>0</ele>
       <time>2010-11-02T07:46:13Z</time>
       <type>Trackpoint</type>
    </trkpt>
    <trkpt lat="49.2894703" lon="12.8414027">
       <ele>0</ele>
       <time>2010-11-02T07:46:13Z</time>
       <type>Trackpoint</type>
    </trkpt>
    <trkpt lat="49.2891169" lon="12.8418319">
       <ele>0</ele>
       <time>2010-11-02T07:46:13Z</time>
       <type>Trackpoint</type>
    </trkpt>
    <trkpt lat="49.2887040" lon="12.8423332">
       <ele>0</ele>
       <time>2010-11-02T07:46:13Z</time>
       <type>Trackpoint</type>
    </trkpt>
    <trkpt lat="49.2887509" lon="12.8424974">
       <ele>0</ele>
       <time>2010-11-02T07:46:13Z</time>
       <type>Trackpoint</type>
    </trkpt>
    <trkpt lat="49.2882718" lon="12.8429493">
       <ele>0</ele>
       <time>2010-11-02T07:46:13Z</time>
       <type>Trackpoint</type>
    </trkpt>
    <trkpt lat="49.2876920" lon="12.8429812">
       <ele>0</ele>
       <time>2010-11-02T07:46:13Z</time>
       <type>Trackpoint</type>
    </trkpt>
    <trkpt lat="49.2869532" lon="12.8430219">
       <ele>0</ele>
       <time>2010-11-02T07:46:13Z</time>
       <type>Trackpoint</type>
    </trkpt>
    <trkpt lat="49.2862614" lon="12.8430600">
       <ele>0</ele>
       <time>2010-11-02T07:46:13Z</time>
       <type>Trackpoint</type>
    </trkpt>
    <trkpt lat="49.2855877" lon="12.8430971">
       <ele>0</ele>
       <time>2010-11-02T07:46:13Z</time>
       <type>Trackpoint</type>
    </trkpt>
    <trkpt lat="49.2851428" lon="12.8431216">
       <ele>0</ele>
       <time>2010-11-02T07:46:13Z</time>
       <type>Trackpoint</type>
    </trkpt>
    <trkpt lat="49.2843022" lon="12.8434418">
       <ele>0</ele>
       <time>2010-11-02T07:46:13Z</time>
       <type>Trackpoint</type>
    </trkpt>
    <trkpt lat="49.2838435" lon="12.8438591">
       <ele>0</ele>
       <time>2010-11-02T07:46:13Z</time>
       <type>Trackpoint</type>
    </trkpt>
    <trkpt lat="49.2834757" lon="12.8441938">
       <ele>0</ele>
       <time>2010-11-02T07:46:13Z</time>
       <type>Trackpoint</type>
    </trkpt>
    <trkpt lat="49.2830910" lon="12.8444538">
       <ele>0</ele>
       <time>2010-11-02T07:46:13Z</time>
       <type>Trackpoint</type>
    </trkpt>
    <trkpt lat="49.2826899" lon="12.8446107">
       <ele>0</ele>
       <time>2010-11-02T07:46:13Z</time>
       <type>Trackpoint</type>
    </trkpt>
    <trkpt lat="49.2819228" lon="12.8446697">
       <ele>0</ele>
       <time>2010-11-02T07:46:13Z</time>
       <type>Trackpoint</type>
    </trkpt>
    <trkpt lat="49.2813115" lon="12.8447168">
       <ele>0</ele>
       <time>2010-11-02T07:46:13Z</time>
       <type>Trackpoint</type>
    </trkpt>
    <trkpt lat="49.2808644" lon="12.8446308">
       <ele>0</ele>
       <time>2010-11-02T07:46:13Z</time>
       <type>Trackpoint</type>
    </trkpt>
    <trkpt lat="49.2801282" lon="12.8444892">
       <ele>0</ele>
       <time>2010-11-02T07:46:13Z</time>
       <type>Trackpoint</type>
    </trkpt>
    <trkpt lat="49.2797977" lon="12.8444331">
       <ele>0</ele>
       <time>2010-11-02T07:46:13Z</time>
       <type>Trackpoint</type>
    </trkpt>
    <trkpt lat="49.2791860" lon="12.8444758">
       <ele>0</ele>
       <time>2010-11-02T07:46:13Z</time>
       <type>Trackpoint</type>
    </trkpt>
    <trkpt lat="49.2785885" lon="12.8446892">
       <ele>0</ele>
       <time>2010-11-02T07:46:13Z</time>
       <type>Trackpoint</type>
    </trkpt>
    <trkpt lat="49.2782186" lon="12.8445185">
       <ele>0</ele>
       <time>2010-11-02T07:46:13Z</time>
       <type>Trackpoint</type>
    </trkpt>
    <trkpt lat="49.2777967" lon="12.8444970">
       <ele>0</ele>
       <time>2010-11-02T07:46:13Z</time>
       <type>Trackpoint</type>
    </trkpt>
    <trkpt lat="49.2772198" lon="12.8444676">
       <ele>0</ele>
       <time>2010-11-02T07:46:13Z</time>
       <type>Trackpoint</type>
    </trkpt>
    <trkpt lat="49.2768781" lon="12.8444502">
       <ele>0</ele>
       <time>2010-11-02T07:46:13Z</time>
       <type>Trackpoint</type>
    </trkpt>
    <trkpt lat="49.2763010" lon="12.8442906">
       <ele>0</ele>
       <time>2010-11-02T07:46:13Z</time>
       <type>Trackpoint</type>
    </trkpt>
    <trkpt lat="49.2757663" lon="12.8441401">
       <ele>0</ele>
       <time>2010-11-02T07:46:13Z</time>
       <type>Trackpoint</type>
    </trkpt>
    <trkpt lat="49.2752513" lon="12.8442375">
       <ele>0</ele>
       <time>2010-11-02T07:46:13Z</time>
       <type>Trackpoint</type>
    </trkpt>
    <trkpt lat="49.2747041" lon="12.8445674">
       <ele>0</ele>
       <time>2010-11-02T07:46:13Z</time>
       <type>Trackpoint</type>
    </trkpt>
    <trkpt lat="49.2743047" lon="12.8448082">
       <ele>0</ele>
       <time>2010-11-02T07:46:13Z</time>
       <type>Trackpoint</type>
    </trkpt>
    <trkpt lat="49.2738595" lon="12.8450049">
       <ele>0</ele>
       <time>2010-11-02T07:46:13Z</time>
       <type>Trackpoint</type>
    </trkpt>
    <trkpt lat="49.2734917" lon="12.8451680">
       <ele>0</ele>
       <time>2010-11-02T07:46:13Z</time>
       <type>Trackpoint</type>
    </trkpt>
    <trkpt lat="49.2730798" lon="12.8454903">
       <ele>0</ele>
       <time>2010-11-02T07:46:13Z</time>
       <type>Trackpoint</type>
    </trkpt>
    <trkpt lat="49.2726533" lon="12.8459783">
       <ele>0</ele>
       <time>2010-11-02T07:46:13Z</time>
       <type>Trackpoint</type>
    </trkpt>
    <trkpt lat="49.2721386" lon="12.8465674">
       <ele>0</ele>
       <time>2010-11-02T07:46:13Z</time>
       <type>Trackpoint</type>
    </trkpt>
    <trkpt lat="49.2716592" lon="12.8471159">
       <ele>0</ele>
       <time>2010-11-02T07:46:13Z</time>
       <type>Trackpoint</type>
    </trkpt>
    <trkpt lat="49.2712044" lon="12.8476364">
       <ele>0</ele>
       <time>2010-11-02T07:46:13Z</time>
       <type>Trackpoint</type>
    </trkpt>
    <trkpt lat="49.2703740" lon="12.8484029">
       <ele>0</ele>
       <time>2010-11-02T07:46:13Z</time>
       <type>Trackpoint</type>
    </trkpt>
    <trkpt lat="49.2702340" lon="12.8485558">
       <ele>0</ele>
       <time>2010-11-02T07:46:13Z</time>
       <type>Trackpoint</type>
    </trkpt>
    <trkpt lat="49.2698701" lon="12.8492108">
       <ele>0</ele>
       <time>2010-11-02T07:46:13Z</time>
       <type>Trackpoint</type>
    </trkpt>
    <trkpt lat="49.2695183" lon="12.8498440">
       <ele>0</ele>
       <time>2010-11-02T07:46:13Z</time>
       <type>Trackpoint</type>
    </trkpt>
    <trkpt lat="49.2690848" lon="12.8506243">
       <ele>0</ele>
       <time>2010-11-02T07:46:13Z</time>
       <type>Trackpoint</type>
    </trkpt>
    <trkpt lat="49.2687570" lon="12.8515338">
       <ele>0</ele>
       <time>2010-11-02T07:46:13Z</time>
       <type>Trackpoint</type>
    </trkpt>
    <trkpt lat="49.2682932" lon="12.8528205">
       <ele>0</ele>
       <time>2010-11-02T07:46:13Z</time>
       <type>Trackpoint</type>
    </trkpt>
    <trkpt lat="49.2677739" lon="12.8529833">
       <ele>0</ele>
       <time>2010-11-02T07:46:13Z</time>
       <type>Trackpoint</type>
    </trkpt>
    <trkpt lat="49.2671472" lon="12.8531797">
       <ele>0</ele>
       <time>2010-11-02T07:46:13Z</time>
       <type>Trackpoint</type>
    </trkpt>
    <trkpt lat="49.2665822" lon="12.8533568">
       <ele>0</ele>
       <time>2010-11-02T07:46:13Z</time>
       <type>Trackpoint</type>
    </trkpt>
    <trkpt lat="49.2660935" lon="12.8536867">
       <ele>0</ele>
       <time>2010-11-02T07:46:13Z</time>
       <type>Trackpoint</type>
    </trkpt>
    <trkpt lat="49.2655607" lon="12.8540463">
       <ele>0</ele>
       <time>2010-11-02T07:46:13Z</time>
       <type>Trackpoint</type>
    </trkpt>
    <trkpt lat="49.2648712" lon="12.8540207">
       <ele>0</ele>
       <time>2010-11-02T07:46:13Z</time>
       <type>Trackpoint</type>
    </trkpt>
    <trkpt lat="49.2644432" lon="12.8542704">
       <ele>0</ele>
       <time>2010-11-02T07:46:13Z</time>
       <type>Trackpoint</type>
    </trkpt>
    <trkpt lat="49.2639519" lon="12.8545570">
       <ele>0</ele>
       <time>2010-11-02T07:46:13Z</time>
       <type>Trackpoint</type>
    </trkpt>
    <trkpt lat="49.2631888" lon="12.8543792">
       <ele>0</ele>
       <time>2010-11-02T07:46:13Z</time>
       <type>Trackpoint</type>
    </trkpt>
    <trkpt lat="49.2624886" lon="12.8542161">
       <ele>0</ele>
       <time>2010-11-02T07:46:13Z</time>
       <type>Trackpoint</type>
    </trkpt>
    <trkpt lat="49.2619364" lon="12.8540874">
       <ele>0</ele>
       <time>2010-11-02T07:46:13Z</time>
       <type>Trackpoint</type>
    </trkpt>
    <trkpt lat="49.2616230" lon="12.8540144">
       <ele>0</ele>
       <time>2010-11-02T07:46:13Z</time>
       <type>Trackpoint</type>
    </trkpt>
    <trkpt lat="49.2611716" lon="12.8539184">
       <ele>0</ele>
       <time>2010-11-02T07:46:13Z</time>
       <type>Trackpoint</type>
    </trkpt>
    <trkpt lat="49.2608532" lon="12.8540670">
       <ele>0</ele>
       <time>2010-11-02T07:46:13Z</time>
       <type>Trackpoint</type>
    </trkpt>
    <trkpt lat="49.2602688" lon="12.8543398">
       <ele>0</ele>
       <time>2010-11-02T07:46:13Z</time>
       <type>Trackpoint</type>
    </trkpt>
    <trkpt lat="49.2599223" lon="12.8545015">
       <ele>0</ele>
       <time>2010-11-02T07:46:13Z</time>
       <type>Trackpoint</type>
    </trkpt>
    <trkpt lat="49.2594642" lon="12.8543973">
       <ele>0</ele>
       <time>2010-11-02T07:46:13Z</time>
       <type>Trackpoint</type>
    </trkpt>
    <trkpt lat="49.2589825" lon="12.8549125">
       <ele>0</ele>
       <time>2010-11-02T07:46:13Z</time>
       <type>Trackpoint</type>
    </trkpt>
    <trkpt lat="49.2585012" lon="12.8554273">
       <ele>0</ele>
       <time>2010-11-02T07:46:13Z</time>
       <type>Trackpoint</type>
    </trkpt>
    <trkpt lat="49.2580830" lon="12.8558747">
       <ele>0</ele>
       <time>2010-11-02T07:46:13Z</time>
       <type>Trackpoint</type>
    </trkpt>
    <trkpt lat="49.2577488" lon="12.8562321">
       <ele>0</ele>
       <time>2010-11-02T07:46:13Z</time>
       <type>Trackpoint</type>
    </trkpt>
    <trkpt lat="49.2573093" lon="12.8566846">
       <ele>0</ele>
       <time>2010-11-02T07:46:13Z</time>
       <type>Trackpoint</type>
    </trkpt>
    <trkpt lat="49.2569408" lon="12.8574426">
       <ele>0</ele>
       <time>2010-11-02T07:46:13Z</time>
       <type>Trackpoint</type>
    </trkpt>
    <trkpt lat="49.2566285" lon="12.8580850">
       <ele>0</ele>
       <time>2010-11-02T07:46:13Z</time>
       <type>Trackpoint</type>
    </trkpt>
    <trkpt lat="49.2560836" lon="12.8586013">
       <ele>0</ele>
       <time>2010-11-02T07:46:13Z</time>
       <type>Trackpoint</type>
    </trkpt>
    <trkpt lat="49.2555275" lon="12.8591281">
       <ele>0</ele>
       <time>2010-11-02T07:46:13Z</time>
       <type>Trackpoint</type>
    </trkpt>
    <trkpt lat="49.2555470" lon="12.8604487">
       <ele>0</ele>
       <time>2010-11-02T07:46:13Z</time>
       <type>Trackpoint</type>
    </trkpt>
    <trkpt lat="49.2555182" lon="12.8610831">
       <ele>0</ele>
       <time>2010-11-02T07:46:13Z</time>
       <type>Trackpoint</type>
    </trkpt>
    <trkpt lat="49.2553394" lon="12.8621757">
       <ele>0</ele>
       <time>2010-11-02T07:46:13Z</time>
       <type>Trackpoint</type>
    </trkpt>
    <trkpt lat="49.2552417" lon="12.8627730">
       <ele>0</ele>
       <time>2010-11-02T07:46:13Z</time>
       <type>Trackpoint</type>
    </trkpt>
    <trkpt lat="49.2549844" lon="12.8640043">
       <ele>0</ele>
       <time>2010-11-02T07:46:13Z</time>
       <type>Trackpoint</type>
    </trkpt>
    <trkpt lat="49.2547584" lon="12.8647086">
       <ele>0</ele>
       <time>2010-11-02T07:46:13Z</time>
       <type>Trackpoint</type>
    </trkpt>
    <trkpt lat="49.2544462" lon="12.8656497">
       <ele>0</ele>
       <time>2010-11-02T07:46:13Z</time>
       <type>Trackpoint</type>
    </trkpt>
    <trkpt lat="49.2539810" lon="12.8660080">
       <ele>0</ele>
       <time>2010-11-02T07:46:13Z</time>
       <type>Trackpoint</type>
    </trkpt>
    <trkpt lat="49.2535854" lon="12.8661463">
       <ele>0</ele>
       <time>2010-11-02T07:46:13Z</time>
       <type>Trackpoint</type>
    </trkpt>
    <trkpt lat="49.2532012" lon="12.8661270">
       <ele>0</ele>
       <time>2010-11-02T07:46:13Z</time>
       <type>Trackpoint</type>
    </trkpt>
    <trkpt lat="49.2528037" lon="12.8661979">
       <ele>0</ele>
       <time>2010-11-02T07:46:13Z</time>
       <type>Trackpoint</type>
    </trkpt>
    <trkpt lat="49.2524452" lon="12.8663473">
       <ele>0</ele>
       <time>2010-11-02T07:46:13Z</time>
       <type>Trackpoint</type>
    </trkpt>
    <trkpt lat="49.2521017" lon="12.8663903">
       <ele>0</ele>
       <time>2010-11-02T07:46:13Z</time>
       <type>Trackpoint</type>
    </trkpt>
    <trkpt lat="49.2517246" lon="12.8664663">
       <ele>0</ele>
       <time>2010-11-02T07:46:13Z</time>
       <type>Trackpoint</type>
    </trkpt>
    <trkpt lat="49.2514617" lon="12.8668626">
       <ele>0</ele>
       <time>2010-11-02T07:46:13Z</time>
       <type>Trackpoint</type>
    </trkpt>
    <trkpt lat="49.2516545" lon="12.8677555">
       <ele>0</ele>
       <time>2010-11-02T07:46:13Z</time>
       <type>Trackpoint</type>
    </trkpt>
    <trkpt lat="49.2517676" lon="12.8682795">
       <ele>0</ele>
       <time>2010-11-02T07:46:13Z</time>
       <type>Trackpoint</type>
    </trkpt>
    <trkpt lat="49.2519335" lon="12.8688694">
       <ele>0</ele>
       <time>2010-11-02T07:46:13Z</time>
       <type>Trackpoint</type>
    </trkpt>
    <trkpt lat="49.2520915" lon="12.8694309">
       <ele>0</ele>
       <time>2010-11-02T07:46:13Z</time>
       <type>Trackpoint</type>
    </trkpt>
    <trkpt lat="49.2523629" lon="12.8703738">
       <ele>0</ele>
       <time>2010-11-02T07:46:13Z</time>
       <type>Trackpoint</type>
    </trkpt>
    <trkpt lat="49.2525163" lon="12.8705474">
       <ele>0</ele>
       <time>2010-11-02T07:46:13Z</time>
       <type>Trackpoint</type>
    </trkpt>
    <trkpt lat="49.2524797" lon="12.8706891">
       <ele>0</ele>
       <time>2010-11-02T07:46:13Z</time>
       <type>Trackpoint</type>
    </trkpt>
    <trkpt lat="49.2523852" lon="12.8711462">
       <ele>0</ele>
       <time>2010-11-02T07:46:13Z</time>
       <type>Trackpoint</type>
    </trkpt>
    <trkpt lat="49.2520636" lon="12.8716576">
       <ele>0</ele>
       <time>2010-11-02T07:46:13Z</time>
       <type>Trackpoint</type>
    </trkpt>
    <trkpt lat="49.2517261" lon="12.8721022">
       <ele>0</ele>
       <time>2010-11-02T07:46:13Z</time>
       <type>Trackpoint</type>
    </trkpt>
    <trkpt lat="49.2513545" lon="12.8724132">
       <ele>0</ele>
       <time>2010-11-02T07:46:13Z</time>
       <type>Trackpoint</type>
    </trkpt>
    <trkpt lat="49.2516963" lon="12.8730586">
       <ele>0</ele>
       <time>2010-11-02T07:46:13Z</time>
       <type>Trackpoint</type>
    </trkpt>
    <trkpt lat="49.2521471" lon="12.8739097">
       <ele>0</ele>
       <time>2010-11-02T07:46:13Z</time>
       <type>Trackpoint</type>
    </trkpt>
    <trkpt lat="49.2525958" lon="12.8747570">
       <ele>0</ele>
       <time>2010-11-02T07:46:13Z</time>
       <type>Trackpoint</type>
    </trkpt>
    <trkpt lat="49.2530356" lon="12.8755875">
       <ele>0</ele>
       <time>2010-11-02T07:46:13Z</time>
       <type>Trackpoint</type>
    </trkpt>
    <trkpt lat="49.2534299" lon="12.8764368">
       <ele>0</ele>
       <time>2010-11-02T07:46:13Z</time>
       <type>Trackpoint</type>
    </trkpt>
    <trkpt lat="49.2537111" lon="12.8770426">
       <ele>0</ele>
       <time>2010-11-02T07:46:13Z</time>
       <type>Trackpoint</type>
    </trkpt>
    <trkpt lat="49.2538402" lon="12.8774009">
       <ele>0</ele>
       <time>2010-11-02T07:46:13Z</time>
       <type>Trackpoint</type>
    </trkpt>
    <trkpt lat="49.2539581" lon="12.8777178">
       <ele>0</ele>
       <time>2010-11-02T07:46:13Z</time>
       <type>Trackpoint</type>
    </trkpt>
    <trkpt lat="49.2536777" lon="12.8780984">
       <ele>0</ele>
       <time>2010-11-02T07:46:13Z</time>
       <type>Trackpoint</type>
    </trkpt>
    <trkpt lat="49.2530556" lon="12.8778922">
       <ele>0</ele>
       <time>2010-11-02T07:46:13Z</time>
       <type>Trackpoint</type>
    </trkpt>
    <trkpt lat="49.2524921" lon="12.8777054">
       <ele>0</ele>
       <time>2010-11-02T07:46:13Z</time>
       <type>Trackpoint</type>
    </trkpt>
    <trkpt lat="49.2518347" lon="12.8774875">
       <ele>0</ele>
       <time>2010-11-02T07:46:13Z</time>
       <type>Trackpoint</type>
    </trkpt>
    <trkpt lat="49.2518141" lon="12.8780204">
       <ele>0</ele>
       <time>2010-11-02T07:46:13Z</time>
       <type>Trackpoint</type>
    </trkpt>
    <trkpt lat="49.2514391" lon="12.8788838">
       <ele>0</ele>
       <time>2010-11-02T07:46:13Z</time>
       <type>Trackpoint</type>
    </trkpt>
    <trkpt lat="49.2516120" lon="12.8796771">
       <ele>0</ele>
       <time>2010-11-02T07:46:13Z</time>
       <type>Trackpoint</type>
    </trkpt>
    <trkpt lat="49.2523473" lon="12.8803825">
       <ele>0</ele>
       <time>2010-11-02T07:46:13Z</time>
       <type>Trackpoint</type>
    </trkpt>
    <trkpt lat="49.2528198" lon="12.8809621">
       <ele>0</ele>
       <time>2010-11-02T07:46:13Z</time>
       <type>Trackpoint</type>
    </trkpt>
    <trkpt lat="49.2530116" lon="12.8812313">
       <ele>0</ele>
       <time>2010-11-02T07:46:13Z</time>
       <type>Trackpoint</type>
    </trkpt>
    <trkpt lat="49.2523663" lon="12.8814200">
       <ele>0</ele>
       <time>2010-11-02T07:46:13Z</time>
       <type>Trackpoint</type>
    </trkpt>
    <trkpt lat="49.2518241" lon="12.8821812">
       <ele>0</ele>
       <time>2010-11-02T07:46:13Z</time>
       <type>Trackpoint</type>
    </trkpt>
    <trkpt lat="49.2512088" lon="12.8823064">
       <ele>0</ele>
       <time>2010-11-02T07:46:13Z</time>
       <type>Trackpoint</type>
    </trkpt>
    <trkpt lat="49.2505831" lon="12.8829946">
       <ele>0</ele>
       <time>2010-11-02T07:46:13Z</time>
       <type>Trackpoint</type>
    </trkpt>
    <trkpt lat="49.2508181" lon="12.8838542">
       <ele>0</ele>
       <time>2010-11-02T07:46:13Z</time>
       <type>Trackpoint</type>
    </trkpt>
    <trkpt lat="49.2509848" lon="12.8844638">
       <ele>0</ele>
       <time>2010-11-02T07:46:13Z</time>
       <type>Trackpoint</type>
    </trkpt>
    <trkpt lat="49.2511486" lon="12.8855341">
       <ele>0</ele>
       <time>2010-11-02T07:46:13Z</time>
       <type>Trackpoint</type>
    </trkpt>
    <trkpt lat="49.2511136" lon="12.8858546">
       <ele>0</ele>
       <time>2010-11-02T07:46:13Z</time>
       <type>Trackpoint</type>
    </trkpt>
    <trkpt lat="49.2509955" lon="12.8861112">
       <ele>0</ele>
       <time>2010-11-02T07:46:13Z</time>
       <type>Trackpoint</type>
    </trkpt>
    <trkpt lat="49.2505738" lon="12.8865154">
       <ele>0</ele>
       <time>2010-11-02T07:46:13Z</time>
       <type>Trackpoint</type>
    </trkpt>
    <trkpt lat="49.2501791" lon="12.8873191">
       <ele>0</ele>
       <time>2010-11-02T07:46:13Z</time>
       <type>Trackpoint</type>
    </trkpt>
    <trkpt lat="49.2499209" lon="12.8877516">
       <ele>0</ele>
       <time>2010-11-02T07:46:13Z</time>
       <type>Trackpoint</type>
    </trkpt>
    <trkpt lat="49.2496176" lon="12.8892855">
       <ele>0</ele>
       <time>2010-11-02T07:46:13Z</time>
       <type>Trackpoint</type>
    </trkpt>
    <trkpt lat="49.2493511" lon="12.8895958">
       <ele>0</ele>
       <time>2010-11-02T07:46:13Z</time>
       <type>Trackpoint</type>
    </trkpt>
    <trkpt lat="49.2493506" lon="12.8905704">
       <ele>0</ele>
       <time>2010-11-02T07:46:13Z</time>
       <type>Trackpoint</type>
    </trkpt>
    <trkpt lat="49.2492047" lon="12.8905551">
       <ele>0</ele>
       <time>2010-11-02T07:46:13Z</time>
       <type>Trackpoint</type>
    </trkpt>
    <trkpt lat="49.2490090" lon="12.8905555">
       <ele>0</ele>
       <time>2010-11-02T07:46:13Z</time>
       <type>Trackpoint</type>
    </trkpt>
    <trkpt lat="49.2489690" lon="12.8905211">
       <ele>0</ele>
       <time>2010-11-02T07:46:13Z</time>
       <type>Trackpoint</type>
    </trkpt>
    <trkpt lat="49.2488797" lon="12.8905219">
       <ele>0</ele>
       <time>2010-11-02T07:46:13Z</time>
       <type>Trackpoint</type>
    </trkpt>
    <trkpt lat="49.2487859" lon="12.8905776">
       <ele>0</ele>
       <time>2010-11-02T07:46:13Z</time>
       <type>Trackpoint</type>
    </trkpt>
    <trkpt lat="49.2485162" lon="12.8909643">
       <ele>0</ele>
       <time>2010-11-02T07:46:13Z</time>
       <type>Trackpoint</type>
    </trkpt>
    <trkpt lat="49.2483671" lon="12.8909591">
       <ele>0</ele>
       <time>2010-11-02T07:46:13Z</time>
       <type>Trackpoint</type>
    </trkpt>
    <trkpt lat="49.2481890" lon="12.8912366">
       <ele>0</ele>
       <time>2010-11-02T07:46:13Z</time>
       <type>Trackpoint</type>
    </trkpt>
    <trkpt lat="49.2479654" lon="12.8920328">
       <ele>0</ele>
       <time>2010-11-02T07:46:13Z</time>
       <type>Trackpoint</type>
    </trkpt>
    <trkpt lat="49.2477779" lon="12.8928711">
       <ele>0</ele>
       <time>2010-11-02T07:46:13Z</time>
       <type>Trackpoint</type>
    </trkpt>
    <trkpt lat="49.2485575" lon="12.8935253">
       <ele>0</ele>
       <time>2010-11-02T07:46:13Z</time>
       <type>Trackpoint</type>
    </trkpt>
    <trkpt lat="49.2491539" lon="12.8938399">
       <ele>0</ele>
       <time>2010-11-02T07:46:13Z</time>
       <type>Trackpoint</type>
    </trkpt>
    <trkpt lat="49.2493298" lon="12.8938294">
       <ele>0</ele>
       <time>2010-11-02T07:46:13Z</time>
       <type>Trackpoint</type>
    </trkpt>
    <trkpt lat="49.2494832" lon="12.8938785">
       <ele>0</ele>
       <time>2010-11-02T07:46:13Z</time>
       <type>Trackpoint</type>
    </trkpt>
    <trkpt lat="49.2495629" lon="12.8941424">
       <ele>0</ele>
       <time>2010-11-02T07:46:13Z</time>
       <type>Trackpoint</type>
    </trkpt>
    <trkpt lat="49.2495521" lon="12.8945295">
       <ele>0</ele>
       <time>2010-11-02T07:46:13Z</time>
       <type>Trackpoint</type>
    </trkpt>
    <trkpt lat="49.2495811" lon="12.8947832">
       <ele>0</ele>
       <time>2010-11-02T07:46:13Z</time>
       <type>Trackpoint</type>
    </trkpt>
    <trkpt lat="49.2493885" lon="12.8954011">
       <ele>0</ele>
       <time>2010-11-02T07:46:13Z</time>
       <type>Trackpoint</type>
    </trkpt>
    <trkpt lat="49.2486930" lon="12.8963969">
       <ele>0</ele>
       <time>2010-11-02T07:46:13Z</time>
       <type>Trackpoint</type>
    </trkpt>
    <trkpt lat="49.2482129" lon="12.8971284">
       <ele>0</ele>
       <time>2010-11-02T07:46:13Z</time>
       <type>Trackpoint</type>
    </trkpt>
    <trkpt lat="49.2477164" lon="12.8978849">
       <ele>0</ele>
       <time>2010-11-02T07:46:13Z</time>
       <type>Trackpoint</type>
    </trkpt>
    <trkpt lat="49.2472358" lon="12.8992325">
       <ele>0</ele>
       <time>2010-11-02T07:46:13Z</time>
       <type>Trackpoint</type>
    </trkpt>
    <trkpt lat="49.2470948" lon="12.8997471">
       <ele>0</ele>
       <time>2010-11-02T07:46:13Z</time>
       <type>Trackpoint</type>
    </trkpt>
    <trkpt lat="49.2469362" lon="12.9000725">
       <ele>0</ele>
       <time>2010-11-02T07:46:13Z</time>
       <type>Trackpoint</type>
    </trkpt>
    <trkpt lat="49.2466355" lon="12.9005177">
       <ele>0</ele>
       <time>2010-11-02T07:46:13Z</time>
       <type>Trackpoint</type>
    </trkpt>
    <trkpt lat="49.2459836" lon="12.9010537">
       <ele>0</ele>
       <time>2010-11-02T07:46:13Z</time>
       <type>Trackpoint</type>
    </trkpt>
    <trkpt lat="49.2455561" lon="12.9015375">
       <ele>0</ele>
       <time>2010-11-02T07:46:13Z</time>
       <type>Trackpoint</type>
    </trkpt>
    <trkpt lat="49.2452559" lon="12.9019433">
       <ele>0</ele>
       <time>2010-11-02T07:46:13Z</time>
       <type>Trackpoint</type>
    </trkpt>
    <trkpt lat="49.2445167" lon="12.9024741">
       <ele>0</ele>
       <time>2010-11-02T07:46:13Z</time>
       <type>Trackpoint</type>
    </trkpt>
    <trkpt lat="49.2441630" lon="12.9029694">
       <ele>0</ele>
       <time>2010-11-02T07:46:13Z</time>
       <type>Trackpoint</type>
    </trkpt>
    <trkpt lat="49.2437702" lon="12.9038425">
       <ele>0</ele>
       <time>2010-11-02T07:46:13Z</time>
       <type>Trackpoint</type>
    </trkpt>
    <trkpt lat="49.2434569" lon="12.9045387">
       <ele>0</ele>
       <time>2010-11-02T07:46:13Z</time>
       <type>Trackpoint</type>
    </trkpt>
    <trkpt lat="49.2432180" lon="12.9050257">
       <ele>0</ele>
       <time>2010-11-02T07:46:13Z</time>
       <type>Trackpoint</type>
    </trkpt>
    <trkpt lat="49.2429968" lon="12.9058416">
       <ele>0</ele>
       <time>2010-11-02T07:46:13Z</time>
       <type>Trackpoint</type>
    </trkpt>
    <trkpt lat="49.2426291" lon="12.9065846">
       <ele>0</ele>
       <time>2010-11-02T07:46:13Z</time>
       <type>Trackpoint</type>
    </trkpt>
    <trkpt lat="49.2419826" lon="12.9071737">
       <ele>0</ele>
       <time>2010-11-02T07:46:13Z</time>
       <type>Trackpoint</type>
    </trkpt>
    <trkpt lat="49.2420100" lon="12.9073162">
       <ele>0</ele>
       <time>2010-11-02T07:46:13Z</time>
       <type>Trackpoint</type>
    </trkpt>
    <trkpt lat="49.2413989" lon="12.9077093">
       <ele>0</ele>
       <time>2010-11-02T07:46:13Z</time>
       <type>Trackpoint</type>
    </trkpt>
    <trkpt lat="49.2409187" lon="12.9080086">
       <ele>0</ele>
       <time>2010-11-02T07:46:13Z</time>
       <type>Trackpoint</type>
    </trkpt>
    <trkpt lat="49.2407310" lon="12.9081136">
       <ele>0</ele>
       <time>2010-11-02T07:46:13Z</time>
       <type>Trackpoint</type>
    </trkpt>
    <trkpt lat="49.2404213" lon="12.9084559">
       <ele>0</ele>
       <time>2010-11-02T07:46:13Z</time>
       <type>Trackpoint</type>
    </trkpt>
    <trkpt lat="49.2398438" lon="12.9087244">
       <ele>0</ele>
       <time>2010-11-02T07:46:13Z</time>
       <type>Trackpoint</type>
    </trkpt>
    <trkpt lat="49.2392365" lon="12.9090068">
       <ele>0</ele>
       <time>2010-11-02T07:46:13Z</time>
       <type>Trackpoint</type>
    </trkpt>
    <trkpt lat="49.2387093" lon="12.9092519">
       <ele>0</ele>
       <time>2010-11-02T07:46:13Z</time>
       <type>Trackpoint</type>
    </trkpt>
    <trkpt lat="49.2380689" lon="12.9095497">
       <ele>0</ele>
       <time>2010-11-02T07:46:13Z</time>
       <type>Trackpoint</type>
    </trkpt>
    <trkpt lat="49.2372485" lon="12.9097250">
       <ele>0</ele>
       <time>2010-11-02T07:46:13Z</time>
       <type>Trackpoint</type>
    </trkpt>
    <trkpt lat="49.2366255" lon="12.9100584">
       <ele>0</ele>
       <time>2010-11-02T07:46:13Z</time>
       <type>Trackpoint</type>
    </trkpt>
    <trkpt lat="49.2360275" lon="12.9103784">
       <ele>0</ele>
       <time>2010-11-02T07:46:13Z</time>
       <type>Trackpoint</type>
    </trkpt>
    <trkpt lat="49.2357141" lon="12.9104579">
       <ele>0</ele>
       <time>2010-11-02T07:46:13Z</time>
       <type>Trackpoint</type>
    </trkpt>
    <trkpt lat="49.2351174" lon="12.9106622">
       <ele>0</ele>
       <time>2010-11-02T07:46:13Z</time>
       <type>Trackpoint</type>
    </trkpt>
    <trkpt lat="49.2348178" lon="12.9108793">
       <ele>0</ele>
       <time>2010-11-02T07:46:13Z</time>
       <type>Trackpoint</type>
    </trkpt>
    <trkpt lat="49.2347421" lon="12.9109581">
       <ele>0</ele>
       <time>2010-11-02T07:46:13Z</time>
       <type>Trackpoint</type>
    </trkpt>
    <trkpt lat="49.2346728" lon="12.9111778">
       <ele>0</ele>
       <time>2010-11-02T07:46:13Z</time>
       <type>Trackpoint</type>
    </trkpt>
    <trkpt lat="49.2346667" lon="12.9117027">
       <ele>0</ele>
       <time>2010-11-02T07:46:13Z</time>
       <type>Trackpoint</type>
    </trkpt>
    <trkpt lat="49.2345851" lon="12.9121087">
       <ele>0</ele>
       <time>2010-11-02T07:46:13Z</time>
       <type>Trackpoint</type>
    </trkpt>
    <trkpt lat="49.2343973" lon="12.9125867">
       <ele>0</ele>
       <time>2010-11-02T07:46:13Z</time>
       <type>Trackpoint</type>
    </trkpt>
    <trkpt lat="49.2340542" lon="12.9131596">
       <ele>0</ele>
       <time>2010-11-02T07:46:13Z</time>
       <type>Trackpoint</type>
    </trkpt>
    <trkpt lat="49.2336908" lon="12.9137662">
       <ele>0</ele>
       <time>2010-11-02T07:46:13Z</time>
       <type>Trackpoint</type>
    </trkpt>
    <trkpt lat="49.2334761" lon="12.9141986">
       <ele>0</ele>
       <time>2010-11-02T07:46:13Z</time>
       <type>Trackpoint</type>
    </trkpt>
    <trkpt lat="49.2332743" lon="12.9146052">
       <ele>0</ele>
       <time>2010-11-02T07:46:13Z</time>
       <type>Trackpoint</type>
    </trkpt>
    <trkpt lat="49.2329680" lon="12.9147425">
       <ele>0</ele>
       <time>2010-11-02T07:46:13Z</time>
       <type>Trackpoint</type>
    </trkpt>
    <trkpt lat="49.2326417" lon="12.9148888">
       <ele>0</ele>
       <time>2010-11-02T07:46:13Z</time>
       <type>Trackpoint</type>
    </trkpt>
    <trkpt lat="49.2323434" lon="12.9150226">
       <ele>0</ele>
       <time>2010-11-02T07:46:13Z</time>
       <type>Trackpoint</type>
    </trkpt>
    <trkpt lat="49.2318591" lon="12.9151729">
       <ele>0</ele>
       <time>2010-11-02T07:46:13Z</time>
       <type>Trackpoint</type>
    </trkpt>
    <trkpt lat="49.2316082" lon="12.9152314">
       <ele>0</ele>
       <time>2010-11-02T07:46:13Z</time>
       <type>Trackpoint</type>
    </trkpt>
    <trkpt lat="49.2314686" lon="12.9152981">
       <ele>0</ele>
       <time>2010-11-02T07:46:13Z</time>
       <type>Trackpoint</type>
    </trkpt>
    <trkpt lat="49.2310325" lon="12.9155549">
       <ele>0</ele>
       <time>2010-11-02T07:46:13Z</time>
       <type>Trackpoint</type>
    </trkpt>
    <trkpt lat="49.2308446" lon="12.9160454">
       <ele>0</ele>
       <time>2010-11-02T07:46:13Z</time>
       <type>Trackpoint</type>
    </trkpt>
    <trkpt lat="49.2306593" lon="12.9165290">
       <ele>0</ele>
       <time>2010-11-02T07:46:13Z</time>
       <type>Trackpoint</type>
    </trkpt>
    <trkpt lat="49.2303187" lon="12.9170077">
       <ele>0</ele>
       <time>2010-11-02T07:46:13Z</time>
       <type>Trackpoint</type>
    </trkpt>
    <trkpt lat="49.2301329" lon="12.9173479">
       <ele>0</ele>
       <time>2010-11-02T07:46:13Z</time>
       <type>Trackpoint</type>
    </trkpt>
    <trkpt lat="49.2299930" lon="12.9177403">
       <ele>0</ele>
       <time>2010-11-02T07:46:13Z</time>
       <type>Trackpoint</type>
    </trkpt>
    <trkpt lat="49.2298657" lon="12.9182392">
       <ele>0</ele>
       <time>2010-11-02T07:46:13Z</time>
       <type>Trackpoint</type>
    </trkpt>
    <trkpt lat="49.2296718" lon="12.9184384">
       <ele>0</ele>
       <time>2010-11-02T07:46:13Z</time>
       <type>Trackpoint</type>
    </trkpt>
    <trkpt lat="49.2296135" lon="12.9188549">
       <ele>0</ele>
       <time>2010-11-02T07:46:13Z</time>
       <type>Trackpoint</type>
    </trkpt>
    <trkpt lat="49.2294590" lon="12.9190558">
       <ele>0</ele>
       <time>2010-11-02T07:46:13Z</time>
       <type>Trackpoint</type>
    </trkpt>
    <trkpt lat="49.2290142" lon="12.9193228">
       <ele>0</ele>
       <time>2010-11-02T07:46:13Z</time>
       <type>Trackpoint</type>
    </trkpt>
    <trkpt lat="49.2286968" lon="12.9195584">
       <ele>0</ele>
       <time>2010-11-02T07:46:13Z</time>
       <type>Trackpoint</type>
    </trkpt>
    <trkpt lat="49.2284476" lon="12.9196902">
       <ele>0</ele>
       <time>2010-11-02T07:46:13Z</time>
       <type>Trackpoint</type>
    </trkpt>
    <trkpt lat="49.2279885" lon="12.9198931">
       <ele>0</ele>
       <time>2010-11-02T07:46:13Z</time>
       <type>Trackpoint</type>
    </trkpt>
    <trkpt lat="49.2278026" lon="12.9200513">
       <ele>0</ele>
       <time>2010-11-02T07:46:13Z</time>
       <type>Trackpoint</type>
    </trkpt>
    <trkpt lat="49.2277052" lon="12.9200405">
       <ele>0</ele>
       <time>2010-11-02T07:46:13Z</time>
       <type>Trackpoint</type>
    </trkpt>
    <trkpt lat="49.2276025" lon="12.9198881">
       <ele>0</ele>
       <time>2010-11-02T07:46:13Z</time>
       <type>Trackpoint</type>
    </trkpt>
    <trkpt lat="49.2275376" lon="12.9194306">
       <ele>0</ele>
       <time>2010-11-02T07:46:13Z</time>
       <type>Trackpoint</type>
    </trkpt>
    <trkpt lat="49.2275343" lon="12.9191866">
       <ele>0</ele>
       <time>2010-11-02T07:46:13Z</time>
       <type>Trackpoint</type>
    </trkpt>
    <trkpt lat="49.2275939" lon="12.9188017">
       <ele>0</ele>
       <time>2010-11-02T07:46:13Z</time>
       <type>Trackpoint</type>
    </trkpt>
    <trkpt lat="49.2276892" lon="12.9185345">
       <ele>0</ele>
       <time>2010-11-02T07:46:13Z</time>
       <type>Trackpoint</type>
    </trkpt>
    <trkpt lat="49.2277500" lon="12.9181538">
       <ele>0</ele>
       <time>2010-11-02T07:46:13Z</time>
       <type>Trackpoint</type>
    </trkpt>
    <trkpt lat="49.2277170" lon="12.9177777">
       <ele>0</ele>
       <time>2010-11-02T07:46:13Z</time>
       <type>Trackpoint</type>
    </trkpt>
    <trkpt lat="49.2276213" lon="12.9175100">
       <ele>0</ele>
       <time>2010-11-02T07:46:13Z</time>
       <type>Trackpoint</type>
    </trkpt>
    <trkpt lat="49.2272475" lon="12.9169665">
       <ele>0</ele>
       <time>2010-11-02T07:46:13Z</time>
       <type>Trackpoint</type>
    </trkpt>
    <trkpt lat="49.2270904" lon="12.9166461">
       <ele>0</ele>
       <time>2010-11-02T07:46:13Z</time>
       <type>Trackpoint</type>
    </trkpt>
    <trkpt lat="49.2268883" lon="12.9162399">
       <ele>0</ele>
       <time>2010-11-02T07:46:13Z</time>
       <type>Trackpoint</type>
    </trkpt>
    <trkpt lat="49.2266396" lon="12.9155939">
       <ele>0</ele>
       <time>2010-11-02T07:46:13Z</time>
       <type>Trackpoint</type>
    </trkpt>
    <trkpt lat="49.2263177" lon="12.9148920">
       <ele>0</ele>
       <time>2010-11-02T07:46:13Z</time>
       <type>Trackpoint</type>
    </trkpt>
    <trkpt lat="49.2260757" lon="12.9144501">
       <ele>0</ele>
       <time>2010-11-02T07:46:13Z</time>
       <type>Trackpoint</type>
    </trkpt>
    <trkpt lat="49.2258276" lon="12.9140732">
       <ele>0</ele>
       <time>2010-11-02T07:46:13Z</time>
       <type>Trackpoint</type>
    </trkpt>
    <trkpt lat="49.2255543" lon="12.9137747">
       <ele>0</ele>
       <time>2010-11-02T07:46:13Z</time>
       <type>Trackpoint</type>
    </trkpt>
    <trkpt lat="49.2251019" lon="12.9133349">
       <ele>0</ele>
       <time>2010-11-02T07:46:13Z</time>
       <type>Trackpoint</type>
    </trkpt>
    <trkpt lat="49.2246212" lon="12.9128982">
       <ele>0</ele>
       <time>2010-11-02T07:46:13Z</time>
       <type>Trackpoint</type>
    </trkpt>
    <trkpt lat="49.2241534" lon="12.9125822">
       <ele>0</ele>
       <time>2010-11-02T07:46:13Z</time>
       <type>Trackpoint</type>
    </trkpt>
    <trkpt lat="49.2236212" lon="12.9119974">
       <ele>0</ele>
       <time>2010-11-02T07:46:13Z</time>
       <type>Trackpoint</type>
    </trkpt>
    <trkpt lat="49.2233859" lon="12.9117388">
       <ele>0</ele>
       <time>2010-11-02T07:46:13Z</time>
       <type>Trackpoint</type>
    </trkpt>
    <trkpt lat="49.2227742" lon="12.9109229">
       <ele>0</ele>
       <time>2010-11-02T07:46:13Z</time>
       <type>Trackpoint</type>
    </trkpt>
    <trkpt lat="49.2221557" lon="12.9100978">
       <ele>0</ele>
       <time>2010-11-02T07:46:13Z</time>
       <type>Trackpoint</type>
    </trkpt>
    <trkpt lat="49.2215848" lon="12.9096730">
       <ele>0</ele>
       <time>2010-11-02T07:46:13Z</time>
       <type>Trackpoint</type>
    </trkpt>
    <trkpt lat="49.2214686" lon="12.9095284">
       <ele>0</ele>
       <time>2010-11-02T07:46:13Z</time>
       <type>Trackpoint</type>
    </trkpt>
    <trkpt lat="49.2213121" lon="12.9092337">
       <ele>0</ele>
       <time>2010-11-02T07:46:13Z</time>
       <type>Trackpoint</type>
    </trkpt>
    <trkpt lat="49.2209420" lon="12.9084796">
       <ele>0</ele>
       <time>2010-11-02T07:46:13Z</time>
       <type>Trackpoint</type>
    </trkpt>
    <trkpt lat="49.2206490" lon="12.9078826">
       <ele>0</ele>
       <time>2010-11-02T07:46:13Z</time>
       <type>Trackpoint</type>
    </trkpt>
    <trkpt lat="49.2204191" lon="12.9075399">
       <ele>0</ele>
       <time>2010-11-02T07:46:13Z</time>
       <type>Trackpoint</type>
    </trkpt>
    <trkpt lat="49.2201236" lon="12.9072183">
       <ele>0</ele>
       <time>2010-11-02T07:46:13Z</time>
       <type>Trackpoint</type>
    </trkpt>
    <trkpt lat="49.2199666" lon="12.9071075">
       <ele>0</ele>
       <time>2010-11-02T07:46:13Z</time>
       <type>Trackpoint</type>
    </trkpt>
    <trkpt lat="49.2195955" lon="12.9069567">
       <ele>0</ele>
       <time>2010-11-02T07:46:13Z</time>
       <type>Trackpoint</type>
    </trkpt>
  </trkseg>
</trk>
<extensions>
</extensions>
</gpx>
